Hearne, TX

11:45 PM CST on November 20, 2019 (GMT -0600)
Hearne

Weather History for KLHB - September, 2019

Change the Weather History Date:

Monday, September 2, 2019

  Actual Average (KCLL) Record (KCLL)
Temperature  
Mean Temperature 84 °F -  
Max Temperature 99 °F 92 °F 107 °F (2000)
Min Temperature 68 °F 70 °F 58 °F (1915)
Cooling Degree Days 18    
Growing Degree Days 34 (Base 50)    
Moisture  
Dew Point 65 °F    
Average Humidity 55    
Maximum Humidity 90    
Minimum Humidity 29    
Precipitation  
Precipitation 0.00 in - - ()
Sea Level Pressure  
Sea Level Pressure 30.02 in    
Wind  
Wind Speed 2 mph ()    
Max Wind Speed 12 mph    
Max Gust Speed 18 mph    
Visibility 10.0 miles    
Events      
Averages and records for this station are not official NWS values.
T = Trace of Precipitation, MM = Missing Value Source: Averaged Metar Reports

Daily Weather History Graph

Daily Weather History Graph

Search for Another Location

Airport or City:

Astronomy

Sep. 02, 2019 Rise Set
Actual Time 7:03 AM CDT 7:48 PM CDT
Civil Twilight 6:38 AM CDT 8:13 PM CDT
Nautical Twilight 6:09 AM CDT 8:42 PM CDT
Astronomical Twilight 5:40 AM CDT 9:11 PM CDT
Moon 10:33 AM CDT (9/2) 10:26 PM CDT (9/2)
Length of Visible Light 13h 34m
Length of Day
12h 45m
Waxing Crescent, 15% of the Moon is Illuminated
Sep 2
Waxing Crescent
Sep 5
First Quarter
Sep 13
Full
Sep 21
Last Quarter
Sep 28
New

Hourly Weather History & Observations

Time (CDT) Temp. Heat Index Dew Point Humidity Pressure Visibility Wind Dir Wind Speed Gust Speed Precip Events Conditions
12:15 AM 81.5 °F 84.9 °F 69.4 °F 67% 30.03 in 10.0 mi Calm Calm - N/A   Clear
12:35 AM 80.6 °F 83.6 °F 69.3 °F 68% 30.03 in 10.0 mi Calm Calm - N/A   Clear
12:55 AM 80.6 °F 83.6 °F 69.1 °F 68% 30.03 in 10.0 mi Calm Calm - N/A   Clear
1:15 AM 79.5 °F - 68.9 °F 70% 30.03 in 10.0 mi Calm Calm - N/A   Clear
1:35 AM 78.3 °F - 68.9 °F 73% 30.03 in 10.0 mi Calm Calm - N/A   Clear
1:55 AM 76.1 °F - 68.7 °F 78% 30.03 in 10.0 mi Calm Calm - N/A   Clear
2:15 AM 76.1 °F - 69.3 °F 79% 30.03 in 10.0 mi Calm Calm - N/A   Clear
2:35 AM 74.7 °F - 68.9 °F 82% 30.03 in 10.0 mi Calm Calm - N/A   Clear
2:55 AM 73.4 °F - 68.2 °F 84% 30.02 in 10.0 mi Calm Calm - N/A   Clear
3:15 AM 73.6 °F - 68.2 °F 83% 30.03 in 10.0 mi Calm Calm - N/A   Clear
3:35 AM 73.4 °F - 68.2 °F 84% 30.03 in 10.0 mi Calm Calm - N/A   Clear
3:55 AM 72.9 °F - 68.2 °F 85% 30.03 in 10.0 mi Calm Calm - N/A   Clear
4:15 AM 72.5 °F - 67.6 °F 85% 30.03 in 10.0 mi Calm Calm - N/A   Clear
4:35 AM 72.3 °F - 68.0 °F 86% 30.03 in 10.0 mi Calm Calm - N/A   Clear
4:55 AM 72.0 °F - 68.0 °F 87% 30.03 in 10.0 mi Calm Calm - N/A   Clear
5:15 AM 71.8 °F - 67.1 °F 85% 30.03 in 10.0 mi Calm Calm - N/A   Clear
5:35 AM 70.9 °F - 66.4 °F 86% 30.03 in 10.0 mi Calm Calm - N/A   Clear
5:55 AM 70.2 °F - 66.6 °F 88% 30.03 in 10.0 mi Calm Calm - N/A   Clear
6:15 AM 70.2 °F - 66.4 °F 88% 30.04 in 10.0 mi Calm Calm - N/A   Clear
6:35 AM 69.4 °F - 66.4 °F 90% 30.04 in 10.0 mi Calm Calm - N/A   Clear
6:55 AM 70.3 °F - 66.6 °F 88% 30.04 in 10.0 mi Calm Calm - N/A   Clear
7:15 AM 68.2 °F - 65.1 °F 90% 30.05 in 10.0 mi Calm Calm - N/A   Clear
7:35 AM 70.0 °F - 66.4 °F 88% 30.05 in 10.0 mi Calm Calm - N/A   Clear
7:55 AM 72.1 °F - 67.1 °F 84% 30.05 in 10.0 mi Calm Calm - N/A   Clear
8:15 AM 75.0 °F - 66.7 °F 75% 30.05 in 10.0 mi Calm Calm - N/A   Clear
8:35 AM 78.3 °F - 67.1 °F 68% 30.06 in 10.0 mi Calm Calm - N/A   Clear
8:55 AM 82.0 °F 84.9 °F 67.8 °F 62% 30.06 in 10.0 mi Calm Calm - N/A   Clear
9:15 AM 85.1 °F 88.2 °F 68.0 °F 56% 30.06 in 10.0 mi Calm Calm - N/A   Clear
9:35 AM 87.6 °F 89.4 °F 65.3 °F 47% 30.07 in 10.0 mi North 3.5 mph - N/A   Clear
9:55 AM 89.4 °F 91.5 °F 65.3 °F 45% 30.08 in 10.0 mi North 3.5 mph - N/A   Clear
10:15 AM 90.0 °F 92.0 °F 65.3 °F 44% 30.08 in 10.0 mi NNE 3.5 mph - N/A   Clear
10:35 AM 91.6 °F 93.5 °F 65.1 °F 41% 30.07 in 10.0 mi North 5.8 mph - N/A   Clear
10:55 AM 91.9 °F 93.7 °F 64.8 °F 40% 30.07 in 10.0 mi North 8.1 mph - N/A   Clear
11:15 AM 92.7 °F 94.0 °F 63.7 °F 38% 30.07 in 10.0 mi NNE 5.8 mph - N/A   Clear
11:35 AM 93.9 °F 95.2 °F 63.3 °F 36% 30.07 in 10.0 mi North 6.9 mph - N/A   Clear
11:55 AM 93.7 °F 95.3 °F 63.9 °F 37% 30.07 in 10.0 mi East 5.8 mph - N/A   Clear
12:15 PM 93.2 °F 94.1 °F 62.6 °F 36% 30.06 in 10.0 mi North 5.8 mph - N/A   Clear
12:35 PM 93.7 °F 94.9 °F 63.3 °F 36% 30.05 in 10.0 mi ENE 6.9 mph - N/A   Clear
12:55 PM 94.8 °F 95.3 °F 61.5 °F 33% 30.05 in 10.0 mi Calm Calm - N/A   Clear
1:15 PM 95.5 °F 96.0 °F 61.5 °F 32% 30.04 in 10.0 mi NNE 9.2 mph - N/A   Scattered Clouds
1:35 PM 96.1 °F 96.9 °F 61.5 °F 32% 30.03 in 10.0 mi NE 10.4 mph 17.3 mph N/A   Clear
1:55 PM 97.9 °F 98.3 °F 61.0 °F 29% 30.02 in 10.0 mi North 9.2 mph 17.3 mph N/A   Clear
2:15 PM 97.9 °F 98.8 °F 61.7 °F 30% 30.01 in 10.0 mi North 10.4 mph - N/A   Scattered Clouds
2:35 PM 97.0 °F 98.3 °F 62.4 °F 32% 30.00 in 10.0 mi NNE 4.6 mph - N/A   Scattered Clouds
2:55 PM 97.3 °F 97.9 °F 61.5 °F 30% 29.99 in 10.0 mi North 10.4 mph 18.4 mph N/A   Scattered Clouds
3:15 PM 98.8 °F 99.7 °F 61.2 °F 29% 29.98 in 10.0 mi East 8.1 mph 16.1 mph N/A   Scattered Clouds
3:35 PM 97.2 °F 98.1 °F 61.7 °F 31% 29.98 in 10.0 mi North 10.4 mph - N/A   Scattered Clouds
3:55 PM 98.4 °F 99.7 °F 62.1 °F 30% 29.98 in 10.0 mi NE 6.9 mph 17.3 mph N/A   Scattered Clouds
4:15 PM 99.1 °F 100.3 °F 61.7 °F 29% 29.97 in 10.0 mi East 11.5 mph - N/A   Scattered Clouds
4:35 PM 97.3 °F 98.4 °F 62.1 °F 31% 29.96 in 10.0 mi NNE 6.9 mph - N/A   Scattered Clouds
4:55 PM 97.9 °F 98.8 °F 61.7 °F 30% 29.96 in 10.0 mi NE 6.9 mph - N/A   Scattered Clouds
5:15 PM 96.3 °F 96.7 °F 60.8 °F 31% 29.96 in 10.0 mi NNE 5.8 mph - N/A   Clear
5:35 PM 97.7 °F 98.5 °F 61.2 °F 30% 29.96 in 10.0 mi ENE 9.2 mph - N/A   Clear
5:55 PM 97.7 °F 99.0 °F 61.9 °F 31% 29.96 in 10.0 mi ENE 8.1 mph - N/A   Clear
6:15 PM 97.0 °F 98.3 °F 62.4 °F 32% 29.96 in 10.0 mi ENE 5.8 mph - N/A   Scattered Clouds
6:35 PM 96.1 °F 97.8 °F 63.5 °F 34% 29.96 in 10.0 mi NE 6.9 mph - N/A   Scattered Clouds
6:55 PM 95.0 °F 96.5 °F 63.7 °F 35% 29.96 in 10.0 mi ENE 6.9 mph - N/A   Clear
7:15 PM 93.9 °F 96.1 °F 64.4 °F 38% 29.96 in 10.0 mi NE 6.9 mph - N/A   Clear
7:35 PM 92.1 °F 94.4 °F 65.3 °F 41% 29.96 in 10.0 mi NE 4.6 mph - N/A   Clear
7:55 PM 90.5 °F 92.5 °F 65.3 °F 43% 29.96 in 10.0 mi NE 3.5 mph - N/A   Clear
8:15 PM 89.2 °F 91.3 °F 65.5 °F 45% 29.96 in 10.0 mi NE 4.6 mph - N/A   Clear
8:35 PM 87.8 °F 90.4 °F 66.2 °F 49% 29.96 in 10.0 mi NE 3.5 mph - N/A   Clear
8:55 PM 87.3 °F 89.5 °F 66.2 °F 49% 29.97 in 10.0 mi NE 3.5 mph - N/A   Clear
9:15 PM 85.5 °F 87.9 °F 66.6 °F 53% 29.98 in 10.0 mi Calm Calm - N/A   Clear
9:35 PM 85.1 °F 87.7 °F 66.6 °F 54% 29.98 in 10.0 mi ENE 3.5 mph - N/A   Clear
9:55 PM 84.6 °F 87.1 °F 66.6 °F 55% 29.99 in 10.0 mi ENE 3.5 mph - N/A   Clear
10:15 PM 84.6 °F 87.1 °F 66.6 °F 55% 29.99 in 10.0 mi ENE 3.5 mph - N/A   Clear
10:35 PM 84.2 °F 86.6 °F 66.6 °F 55% 29.99 in 10.0 mi East 3.5 mph - N/A   Clear
10:55 PM 83.3 °F 85.7 °F 66.6 °F 57% 29.99 in 10.0 mi Calm Calm - N/A   Clear
11:35 PM 82.4 °F 84.6 °F 66.4 °F 58% 29.99 in 10.0 mi Calm Calm - N/A   Clear
11:55 PM 81.0 °F 83.2 °F 66.4 °F 61% 29.98 in 10.0 mi Calm Calm - N/A   Clear